This is the latest recevied weather packets stored in our database for station/object AD5L. If no packets are shown the sender has not sent any weather packets the latest 1 day(s).
| Time | Temp. | Humidity | Pressure | Rain* | Wind** | Luminosity | Snow |
|---|---|---|---|---|---|---|---|
| 1778027016 | 28.89° C | 75% | 1006.3 hPa | 0 mm | 1.79 m/s, 233° | - | - |
| 1778026407 | 28.33° C | 76% | 1006.3 hPa | 0 mm | 2.24 m/s, 124° | - | - |
| 1778025819 | 28.33° C | 76% | 1006.2 hPa | 0 mm | 1.34 m/s, 91° | - | - |
| 1778025208 | 28.89° C | 75% | 1006.3 hPa | 0 mm | 0.45 m/s, 181° | - | - |
| 1778024620 | 28.89° C | 75% | 1006.2 hPa | 0 mm | 1.34 m/s, 129° | - | - |
| 1778024010 | 28.89° C | 74% | 1006.1 hPa | 0 mm | 1.79 m/s, 123° | - | - |
| 1778023421 | 28.89° C | 73% | 1006.1 hPa | 0 mm | 1.79 m/s, 243° | - | - |
| 1778022811 | 29.44° C | 73% | 1006 hPa | 0 mm | 1.79 m/s, 172° | - | - |
| 1778022219 | 29.44° C | 72% | 1005.9 hPa | 0 mm | 2.24 m/s, 207° | - | - |
| 1778021610 | 29.44° C | 73% | 1005.8 hPa | 0 mm | 1.34 m/s, 126° | - | - |
| 1778021018 | 29.44° C | 73% | 1005.7 hPa | 0 mm | 2.24 m/s, 193° | - | - |
| 1778020408 | 29.44° C | 73% | 1005.9 hPa | 0 mm | 1.79 m/s, 127° | - | - |
| 1778019815 | 29.44° C | 72% | 1005.7 hPa | 0 mm | 2.24 m/s, 214° | - | - |
| 1778019206 | 29.44° C | 72% | 1005.7 hPa | 0 mm | 2.24 m/s, 162° | - | - |
| 1778018618 | 30° C | 71% | 1005.8 hPa | 0 mm | 2.24 m/s, 127° | - | - |
| 1778018028 | 30° C | 71% | 1005.8 hPa | 0 mm | 2.24 m/s, 221° | - | - |
| 1778017419 | 30° C | 71% | 1006 hPa | 0 mm | 3.13 m/s, 116° | - | - |
| 1778016830 | 30.56° C | 71% | 1005.9 hPa | 0 mm | 2.24 m/s, 154° | - | - |
| 1778016212 | 30.56° C | 70% | 1006.2 hPa | 0 mm | 1.79 m/s, 121° | - | - |
| 1778015602 | 30.56° C | 71% | 1006.4 hPa | 0 mm | 2.68 m/s, 245° | - | - |
| 1778015009 | 30° C | 72% | 1006.5 hPa | 0 mm | 1.79 m/s, 245° | - | - |
| 1778014419 | 30° C | 72% | 1006.5 hPa | 0 mm | 2.68 m/s, 109° | - | - |
| 1778013811 | 30° C | 72% | 1006.7 hPa | 0 mm | 1.79 m/s, 179° | - | - |
| 1778013202 | 29.44° C | 72% | 1006.6 hPa | 0 mm | 3.13 m/s, 115° | - | - |
| 1778012614 | 30° C | 71% | 1006.9 hPa | 0 mm | 2.68 m/s, 129° | - | - |
* Rain latest hour (hover to see other rain measurements)
** Current wind speed in m/s (hover to see current wind gust speed)